OBJECT M, 63221

Orbit data source: Space-Track

You're viewing an Uncataloged Satellite

Recently launched and/or uncataloged satellites may have evolving metadata. Metadata may include but not limited to: Owner, Maufacturer, Bus, Motor, and Mission.

OBJECT M, 63221 is a satellite in SSO that was launched on Sat, 15 Mar 2025 UTC via an FALCON 9 launch vehicle from the Air Force Western Test Range (AFWTR). Unknown objects in Earth's orbit typically refer to objects detected orbiting the Earth but have not yet been identified or cataloged. These objects could be anything from previously untracked satellites, spent rocket stages, debris from satellite collisions, or even natural meteoroids temporarily captured by Earth's gravity.

Loading next visibility...
Identifier
63221, 2025-052M
Orbit
SSO
Country
Flag of TBDTBD
Related business
None
Manufacturer
Unknown
Mission
Operational Amateur Communications
Bus & Motor
Unknown
Mass
Unknown
Launch date (UTC)
2025-03-15 (1 year ago)
Launch vehicle
FALCON 9
Launch site
Air Force Western Test Range (AFWTR)
Object type
Unknown
Shape & HBR
Box, 0.2 m
Radar Cross Section
0.015 m², Small (<0.1 m²)

Expand to show TLE details & history
Last TLE update: 6 hours ago

TLE from 6 hours ago
0 OBJECT M
1 63221U 25052M   26121.25597391  .00005211  00000-0  23400-3 0  9992
2 63221  97.3946  14.2376 0002255 335.7333  24.3797 15.21592260 62708
Epoch: 2026-05-01T06:08Z
TLE epoch observation values (Epoch: 2026-05-01T06:08:36.145Z)
Latitude
0.00001°
Longitude
62.89615°
Altitude
502.717 km
Speed
7.614 km/s
True Right ascension
00h 56m 57s
True Declination
0° 00' 00"
Sunlit
Object was in daylight at epoch
Visualization orbit readout
Latitude
Unknown
Longitude
Unknown
Altitude
Unknown
Speed
Unknown
Apparent Right ascension
Unknown
Apparent Declination
Unknown
Sunlit
N/A
Visualization observer readout
Local Sidereal Time
19:20:20
Azimuth
Unknown
Elevation
Unknown
Doppler factor
Unknown
Orbital elements
Apogee altitude
499.551 km
Perigee altitude
496.45 km
Semi-major axis
6,876.138 km
Eccentricity
0.00023
Inclination
97.3946°
RAAN
14.2376°
Arg. of periapsis
335.7333°
True anomaly
24.39037°
Mean anomaly
24.3797°
Eccentric anomaly
24.38503°
Mean motion
3.8065 °/min
Orbital period
94.57 mins
BSTAR
0.000234
Loading maneuver chart data...
Computing Atmospheric mass density...
Loading historical data...
Loading historical data...
Loading historical data...
Loading historical data...
Loading historical data...
Loading historical data...
Loading historical data...

Documentation

Showing up to 5 results
|